This is the latest recevied weather packets stored in our database for station/object KC4KQE. If no packets are shown the sender has not sent any weather packets the latest 10 day(s).
| Time | Temp. | Humidity | Pressure | Rain* | Wind** | Luminosity | Snow |
|---|---|---|---|---|---|---|---|
| 1777815557 | 26.67° C | 27% | 1012.3 hPa | 0 mm | - | 62 W/m² | - |
| 1777815257 | 26.67° C | 27% | 1012.4 hPa | 0 mm | - | 53 W/m² | - |
| 1777814957 | 26.67° C | 27% | 1012.3 hPa | 0 mm | - | 51 W/m² | - |
| 1777814657 | 26.67° C | 27% | 1012.3 hPa | 0 mm | - | 42 W/m² | - |
| 1777814359 | 26.67° C | 27% | 1012.3 hPa | 0 mm | - | 35 W/m² | - |
| 1777814057 | 26.11° C | 27% | 1012.2 hPa | 0 mm | - | 32 W/m² | - |
| 1777813757 | 26.11° C | 27% | 1012.1 hPa | 0 mm | - | 30 W/m² | - |
| 1777813457 | 26.11° C | 27% | 1012 hPa | 0 mm | - | 26 W/m² | - |
| 1777813157 | 26.11° C | 27% | 1012 hPa | 0 mm | - | 19 W/m² | - |
| 1777812857 | 26.11° C | 27% | 1012 hPa | 0 mm | - | 14 W/m² | - |
| 1777812557 | 26.11° C | 27% | 1011.9 hPa | 0 mm | - | 11 W/m² | - |
| 1777812257 | 26.11° C | 27% | 1011.9 hPa | 0 mm | - | 5 W/m² | - |
| 1777811957 | 26.11° C | 27% | 1011.9 hPa | 0 mm | - | 0 W/m² | - |
| 1777811657 | 26.11° C | 27% | 1011.8 hPa | 0 mm | - | 0 W/m² | - |
| 1777811357 | 26.11° C | 27% | 1011.8 hPa | 0 mm | - | 0 W/m² | - |
| 1777811057 | 26.11° C | 27% | 1011.7 hPa | 0 mm | - | 0 W/m² | - |
| 1777810757 | 26.11° C | 27% | 1011.8 hPa | 0 mm | - | 0 W/m² | - |
| 1777810457 | 26.11° C | 27% | 1011.7 hPa | 0 mm | - | 0 W/m² | - |
| 1777810157 | 26.11° C | 27% | 1011.7 hPa | 0 mm | - | 0 W/m² | - |
| 1777809857 | 26.11° C | 27% | 1011.7 hPa | 0 mm | - | 0 W/m² | - |
| 1777809557 | 26.11° C | 27% | 1011.7 hPa | 0 mm | - | 0 W/m² | - |
| 1777809257 | 26.11° C | 27% | 1011.6 hPa | 0 mm | - | 0 W/m² | - |
| 1777808958 | 26.11° C | 27% | 1011.7 hPa | 0 mm | - | 0 W/m² | - |
| 1777808657 | 26.11° C | 27% | 1011.7 hPa | 0 mm | - | 0 W/m² | - |
| 1777808357 | 26.11° C | 27% | 1011.5 hPa | 0 mm | - | 0 W/m² | - |
* Rain latest hour (hover to see other rain measurements)
** Current wind speed in m/s (hover to see current wind gust speed)